NK7E Weather Reports


Display with metric or nautical units.
time (UTC)temp
F
wind
direction
speed
MPH
gust
MPH
rain 1hr
in
rain 24hr
in
rain mn
in
humidity
%
barometer
mb
20260901141016 72 113 1.0 3.0 0.00 0.00 0.00 81 1017.9
20260901140016 71 90 2.0 3.0 0.00 0.00 0.00 82 1017.8
20260901135016 71 113 1.0 3.0 0.00 0.00 0.00 83 1017.7
20260901134016 70 0 1.0 3.0 0.00 0.00 0.00 83 1017.7
20260901133016 70 0 2.0 3.0 0.00 0.00 0.00 83 1017.5
20260901132016 70 0.0 0.0 0.00 0.00 0.00 82 1017.4
20260901131016 70 23 2.0 3.0 0.00 0.00 0.00 82 1017.2
20260901130016 70 23 1.0 1.0 0.00 0.00 0.00 81 1017.1
20260901125016 70 23 1.0 2.0 0.00 0.00 0.00 81 1017.0
20260901124016 70 23 1.0 2.0 0.00 0.00 0.00 82 1016.8
20260901123016 70 23 2.0 2.0 0.00 0.00 0.00 82 1016.7
20260901122016 70 23 2.0 3.0 0.00 0.00 0.00 82 1016.6
20260901121016 70 45 1.0 2.0 0.00 0.00 0.00 82 1016.6
20260901120016 70 23 1.0 3.0 0.00 0.15 0.00 82 1016.7
20260901115016 70 23 1.0 3.0 0.00 0.15 0.00 83 1016.6
20260901114016 70 23 1.0 2.0 0.00 0.15 0.00 83 1016.7
20260901113016 70 23 1.0 3.0 0.00 0.15 0.00 83 1016.8
20260901112016 70 23 1.0 2.0 0.00 0.15 0.00 83 1016.8
20260901111016 70 45 1.0 2.0 0.00 0.15 0.00 83 1016.8
20260901110016 70 45 2.0 3.0 0.00 0.15 0.00 83 1016.8
20260901105016 70 0.0 0.0 0.00 0.15 0.00 83 1016.8
20260901104016 70 0.0 0.0 0.00 0.15 0.00 82 1016.6
20260901103016 70 0.0 0.0 0.00 0.15 0.00 82 1016.5
20260901102016 70 0.0 2.0 0.00 0.15 0.00 82 1016.4
20260901101016 70 68 1.0 2.0 0.00 0.15 0.00 82 1016.4
20260901100016 70 0.0 1.0 0.00 0.15 0.00 82 1016.4
20260901095016 70 0.0 1.0 0.00 0.15 0.00 83 1016.4
20260901094016 71 0 1.0 2.0 0.00 0.15 0.00 82 1016.4
20260901093016 71 0.0 0.0 0.00 0.15 0.00 81 1016.4
20260901092016 71 0 1.0 3.0 0.00 0.15 0.00 80 1016.4
20260901091016 71 0.0 0.0 0.00 0.15 0.00 79 1016.5
20260901090016 71 45 1.0 2.0 0.00 0.15 0.00 79 1016.5
20260901085016 72 68 1.0 3.0 0.00 0.15 0.00 79 1016.5
20260901084016 71 45 2.0 3.0 0.00 0.15 0.00 79 1016.6
20260901083016 71 90 1.0 3.0 0.00 0.15 0.00 79 1016.7
20260901082016 71 45 2.0 4.0 0.00 0.15 0.00 79 1016.6
20260901081016 71 68 2.0 3.0 0.00 0.15 0.00 79 1016.7
20260901080016 72 0.0 0.0 0.00 0.15 0.00 79 1016.6
20260901075016 72 0.0 0.0 0.00 0.15 0.00 79 1016.5
20260901074016 72 0.0 0.0 0.00 0.15 0.00 79 1016.7
20260901073016 72 0.0 0.0 0.00 0.15 0.00 78 1016.6
20260901072016 72 0.0 0.0 0.00 0.15 0.00 78 1016.6
20260901071016 73 0.0 0.0 0.00 0.15 0.00 78 1016.5
20260901070016 73 0.0 1.0 0.00 0.15 0.15 77 1016.6
20260901065016 74 68 1.0 2.0 0.00 0.15 0.15 75 1016.7
20260901064016 75 0.0 0.0 0.00 0.15 0.15 71 1016.9
20260901063016 75 0.0 0.0 0.00 0.15 0.15 69 1017.0
20260901062016 76 0 1.0 2.0 0.00 0.15 0.15 67 1017.0
20260901061016 76 0.0 2.0 0.00 0.15 0.15 66 1016.9
20260901060016 76 23 1.0 3.0 0.00 0.15 0.15 65 1016.9
20260901055016 75 0 2.0 5.0 0.00 0.15 0.15 67 1016.9
20260901054017 75 68 2.0 4.0 0.00 0.15 0.15 68 1016.7
20260901053016 75 45 2.0 4.0 0.00 0.15 0.15 70 1016.8
20260901052016 75 45 2.0 4.0 0.00 0.15 0.15 72 1016.9
20260901051016 75 68 2.0 4.0 0.00 0.15 0.15 73 1016.8
20260901050017 76 68 2.0 5.0 0.00 0.15 0.15 72 1016.9
20260901045016 76 68 3.0 6.0 0.00 0.15 0.15 70 1017.2
20260901044016 76 68 4.0 8.0 0.00 0.15 0.15 69 1017.3
20260901043016 76 68 5.0 9.0 0.00 0.15 0.15 68 1017.1
20260901042016 76 90 4.0 9.0 0.00 0.15 0.15 68 1016.9
20260901041016 75 68 4.0 9.0 0.00 0.15 0.15 68 1016.9
20260901040016 75 90 3.0 6.0 0.00 0.15 0.15 70 1016.9
20260901035016 75 68 3.0 5.0 0.00 0.15 0.15 69 1016.8
20260901034016 75 45 3.0 5.0 0.00 0.15 0.15 68 1016.6
20260901033016 75 68 3.0 6.0 0.00 0.15 0.15 68 1016.6
20260901032016 76 68 3.0 5.0 0.00 0.15 0.15 67 1016.5
20260901031016 75 68 3.0 6.0 0.00 0.15 0.15 68 1016.4
20260901030016 75 68 3.0 8.0 0.00 0.15 0.15 70 1016.3
20260901025016 75 68 3.0 7.0 0.00 0.15 0.15 74 1016.1
20260901024016 75 68 2.0 4.0 0.00 0.15 0.15 74 1015.9
20260901023017 75 90 1.0 2.0 0.00 0.15 0.15 74 1015.8
20260901022016 75 90 2.0 3.0 0.00 0.15 0.15 74 1015.6
20260901021016 76 0.0 0.0 0.00 0.15 0.15 74 1015.5
20260901020016 76 0.0 0.0 0.00 0.15 0.15 73 1015.3
20260901015016 76 0.0 0.0 0.00 0.15 0.15 71 1015.4
20260901014016 77 0.0 0.0 0.00 0.15 0.15 70 1014.9
20260901013016 77 0.0 0.0 0.00 0.15 0.15 69 1014.8
20260901012016 77 0.0 0.0 0.00 0.15 0.15 67 1014.8
20260901011016 78 0.0 2.0 0.00 0.15 0.15 66 1014.8
20260901010016 78 0.0 1.0 0.00 0.15 0.15 64 1014.8
20260901005016 78 0.0 1.0 0.00 0.15 0.15 63 1014.8
20260901004016 78 0.0 2.0 0.00 0.15 0.15 64 1014.9
20260901003016 78 0.0 3.0 0.00 0.15 0.15 65 1014.8
20260901002016 78 0.0 2.0 0.00 0.15 0.15 64 1014.8
20260901001016 78 0.0 2.0 0.00 0.15 0.15 64 1014.9
20260901000016 78 0 3.0 6.0 0.00 0.15 0.15 65 1015.1
20260831235016 78 113 3.0 6.0 0.00 0.15 0.15 65 1015.1
20260831234016 77 135 3.0 6.0 0.00 0.15 0.15 68 1015.1
20260831233016 77 135 4.0 9.0 0.00 0.15 0.15 67 1015.0
20260831232016 77 113 4.0 9.0 0.00 0.15 0.15 68 1015.1
20260831231016 77 90 7.0 12.0 0.00 0.15 0.15 67 1015.1
20260831230016 78 90 6.0 12.0 0.00 0.15 0.15 68 1015.3
20260831225016 78 113 5.0 13.0 0.00 0.15 0.15 68 1015.5
20260831224016 78 135 5.0 9.0 0.00 0.15 0.15 68 1015.5
20260831223016 77 113 3.0 7.0 0.00 0.15 0.15 72 1015.6
20260831222016 77 113 1.0 4.0 0.00 0.15 0.15 72 1015.8
20260831221016 77 180 1.0 3.0 0.00 0.15 0.15 76 1016.0
20260831220016 76 0.0 2.0 0.00 0.15 0.15 78 1016.1
20260831215016 73 293 2.0 4.0 0.00 0.15 0.15 80 1016.4
20260831214016 71 270 3.0 7.0 0.00 0.15 0.15 91 1016.5
20260831213016 70 113 1.0 4.0 0.00 0.15 0.15 90 1016.3
20260831212016 69 90 3.0 7.0 0.00 0.15 0.15 89 1016.7
20260831211016 69 45 4.0 8.0 0.00 0.15 0.15 89 1017.3
20260831210016 69 68 6.0 10.0 0.00 0.15 0.15 90 1017.5
20260831205016 68 68 3.0 6.0 0.00 0.15 0.15 90 1018.0
20260831204016 68 68 3.0 7.0 0.00 0.15 0.15 90 1018.2
20260831203016 68 68 4.0 8.0 0.00 0.15 0.15 90 1018.7
20260831202016 68 68 5.0 10.0 0.00 0.15 0.15 90 1019.0
20260831201016 68 90 8.0 15.0 0.00 0.15 0.15 90 1019.5
20260831200016 68 68 5.0 12.0 0.00 0.15 0.15 90 1019.7
20260831195016 68 68 5.0 9.0 0.00 0.15 0.15 90 1019.9
20260831194016 68 68 4.0 8.0 0.00 0.15 0.15 90 1020.0
20260831193016 68 68 3.0 5.0 0.00 0.15 0.15 89 1020.2
20260831192016 68 0 1.0 3.0 0.00 0.15 0.15 88 1020.3
20260831191016 69 203 6.0 13.0 0.00 0.15 0.15 87 1020.1
20260831190016 68 68 2.0 5.0 0.00 0.15 0.15 84 1019.5
20260831185016 68 23 6.0 10.0 0.00 0.15 0.15 85 1019.9
20260831184016 69 0.0 2.0 0.00 0.15 0.15 84 1020.4
20260831183016 70 248 3.0 8.0 0.00 0.15 0.15 82 1020.4
20260831182016 71 270 7.0 15.0 0.00 0.15 0.15 75 1019.5
20260831181016 73 315 8.0 18.0 0.00 0.15 0.15 70 1018.9
20260831180016 72 270 8.0 16.0 0.00 0.15 0.15 72 1019.2
20260831175016 71 270 13.0 25.0 0.00 0.15 0.15 77 1019.2
20260831174016 70 270 13.0 20.0 0.00 0.15 0.15 80 1019.4
20260831173016 70 293 12.0 19.0 0.00 0.15 0.15 79 1019.3
20260831172016 70 270 13.0 20.0 0.00 0.15 0.15 81 1019.3
20260831171016 70 293 14.0 21.0 0.00 0.15 0.15 80 1019.3
20260831170016 72 270 14.0 24.0 0.00 0.15 0.15 77 1018.9
20260831165016 75 270 10.0 17.0 0.00 0.15 0.15 70 1018.9
20260831164016 75 248 8.0 12.0 0.00 0.15 0.15 69 1018.5
20260831163016 75 270 5.0 11.0 0.00 0.15 0.15 75 1018.3
20260831162016 76 270 6.0 12.0 0.00 0.15 0.15 76 1018.2
20260831161016 76 270 3.0 7.0 0.00 0.15 0.15 74 1018.0
20260831160016 77 248 2.0 4.0 0.00 0.15 0.15 73 1017.9
20260831155016 77 203 2.0 7.0 0.00 0.15 0.15 76 1017.6
20260831154016 76 113 3.0 7.0 0.00 0.15 0.15 77 1017.5
20260831153016 75 158 1.0 3.0 0.00 0.15 0.15 80 1017.6
20260831152016 74 0.0 2.0 0.00 0.15 0.15 80 1017.7
20260831151016 74 0.0 0.0 0.00 0.15 0.15 81 1017.5
20260831150016 74 158 2.0 5.0 0.00 0.15 0.15 82 1017.2
20260831145016 73 158 2.0 6.0 0.00 0.15 0.15 83 1017.1
20260831144016 73 68 2.0 6.0 0.00 0.15 0.15 82 1016.8
20260831143016 72 45 3.0 8.0 0.00 0.15 0.15 84 1016.7
20260831142016 71 68 5.0 12.0 0.00 0.15 0.15 85 1016.6